Weather in Izmayil

Ukraine / Odesa District     45°21′03″N   28°50′10″E
temp.,
°C
wind,
m/s
gust,
m/s
humid.,
%
clouds,
%
prec.,
mm/h
press.,
hPa
HPBL,
m
22 april, thu
thu2200:00+10ssw337678 0.1 101836
03:00+10ssw33745 0.2 101823
06:00+9ssw22795 0.0 101923
09:00+13sw34655 0.0 1019370
12:00+18wsw56485 0.0 10201473
15:00+19sw673814 0.1 10192428
18:00+18ssw574316 0.0 10181865
21:00+12sse4674100 0.0 101991
23 april, fri
fri2300:00+12s467265 0.0 101896
03:00+12s3872100 0.0 1017158
06:00+11sw357555 0.0 101785
09:00+16sw3559100 0.0 1017471
12:00+14nw6767100 0.1 1018635
15:00+13w6972100 0.3 1017728
18:00+11nnw101182100 1.1 1018704
21:00+9n478596 1.5 1020427
24 april, sat
sat2400:00+7nnw358847 0.0 1022176
03:00+6nnw22884 0.0 102137
06:00+5wnw22870 0.0 102223
09:00+10wnw33660 0.0 1023456
12:00+13nw44513 0.0 10231339
15:00+12nne555721 0.0 1023658
18:00+13n4349100 0.0 10231246
21:00+9e2362100 0.0 102442
25 april, sun
sun2500:00+8sse237899 0.0 102446
03:00+8se248199 0.0 1023121
06:00+8sse347935 0.0 1023147
09:00+11sse565999 0.0 1022548
12:00+14s554369 0.0 10221545
15:00+15s5643100 0.0 10201564
18:00+12sse784993 0.0 1019490
21:00+9sse6116034 0.0 1019261
26 april, mon
mon2600:00+9wsw265999 0.0 1020298
03:00+8nnw7107785 0.0 1020525
06:00+6nne47868 0.0 1021248
09:00+9ne45550 0.0 1022672
12:00+13n22405 0.0 10221406
15:00+15nw333813 0.0 10211720
18:00+14se2344100 0.0 1019905
21:00+9sse611764 0.0 1020334